Regional Weather Roundup
Issued by NWS

Home | Current Version | Previous Version | Graphics & Text | Print | Product List | Glossary On
Versions: 1 2 3 4 5 6 7 8 9 10 11 12 13 14 15 16 17 18 19 20 21 22 23 24 25 26 27 28 29 30 31 32 33 34 35 36 37 38 39 40 41 42 43 44 45 46 47 48 49
000
ASUS45 KSLC 061210
RWRUT

UTAH REGIONAL WEATHER ROUNDUP
NATIONAL WEATHER SERVICE SALT LAKE CITY UT
500 AM MST FRI MAR 06 2015

UTZ001>011-023>025-061300-

NORTHERN UTAH

CITY           SKY/WX    TMP DP  RH WIND       PRES   REMARKS
BRIGHAM CITY   CLEAR     27  22  80 CALM      30.43S
HILL AFB       CLEAR     30  16  54 E13       30.41S WCI  20
LOGAN          CLEAR     25  19  78 E3        30.42S
OGDEN          CLEAR     30  19  63 S8        30.41S WCI  22
PROVO AIRPORT  CLEAR     27  18  69 SE3       30.44S
SALT LAKE CITY CLEAR     31  23  72 SE6       30.42R WCI  25
VERNAL         PTCLDY    23  14  68 W3        30.42R
WENDOVER       PTCLDY    28  19  69 NW3       30.40S
HEBER CITY     CLEAR     18  14  86 CALM      30.45S
WEST JORDAN    CLEAR     30  21  69 S5        30.42R WCI  25

$$

UTZ012>022-026-027-061300-

SOUTHERN/CENTRAL UTAH

CITY           SKY/WX    TMP DP  RH WIND       PRES   REMARKS
BLANDING       PTCLDY    26  21  82 N5        30.44R WCI  20
BRYCE CANYON   MOCLDY     1  -3  83 W12       30.39S WCI -16
CEDAR CITY     PTCLDY    18  12  77 E3        30.37R
DELTA          PTCLDY    27  22  82 E3        30.42R
HANKSVILLE     CLEAR     25  23  93 CALM      30.43R
MILFORD        CLEAR     24  18  77 NW6       30.39F WCI  17
MOAB/CYNLANDS  CLEAR     27  19  72 SE3       30.40R
PRICE          CLEAR     24  15  68 N6        30.38S WCI  17
ST GEORGE      SUNNY     37  25  60 CALM      30.37S
KANAB          CLEAR     30  18  59 NW15      30.39R WCI  19

$$

REGIONAL REPORTS     COLORADO/ARIZONA

CITY           SKY/WX    TMP DP  RH WIND       PRES   REMARKS
CRAIG, CO      CLEAR     11   7  84 CALM      30.41S
GRAND JUNCTION CLEAR     23  18  81 E6        30.42S WCI  16
RIFLE          PTCLDY    21  17  84 NE3       30.46R
MONTROSE       PTCLDY    24  13  62 SE8       30.44R WCI  15
CORTEZ         CLEAR     19  16  88 E3        30.38R
PAGE, AZ       CLEAR     34  24  67 CALM      30.37R
GRAND CANYON     N/A    N/A N/A N/A MISG      30.34S
KINGMAN        CLEAR     38  25  59 E5        30.27F WCI  34
FLAGSTAFF      PTCLDY    26   9  48 E9        30.33R WCI  17

$$

REGIONAL REPORTS    NEVADA/IDAHO/WYOMING

CITY           SKY/WX    TMP DP  RH WIND       PRES   REMARKS
LAS VEGAS, NV  CLEAR     45  31  58 SW8       30.25S
ELY            PTCLDY    20  16  84 S12       30.40S WCI   8
ELKO           MOCLDY    21  10  62 NE3       30.42S
POCATELLO, ID  CLEAR     26  19  74 NW6       30.39R WCI  19
BURLEY         CLEAR     23  15  71 CALM      30.37R
EVANSTON, WY   PTCLDY    20  12  71 SW13      30.37F WCI   7
ROCK SPRINGS   PTCLDY    24  11  57 W13       30.34S WCI  12

$$



USA.gov is the U.S. government's official web portal to all federal, state and local government web resources and services.